Greensboro, GA

11:51 PM EST on November 19, 2017 (GMT -0500)
Greensboro

Weather History for K3J7 - February, 2014

Change the Weather History Date:

Friday, February 21, 2014

  Actual Average (KDBN) Record (KDBN)
Temperature  
Mean Temperature 52 °F -  
Max Temperature 64 °F 65 °F 83 °F (1986)
Min Temperature 39 °F 38 °F 23 °F (1959)
Degree Days  
Heating Degree Days 14    
Growing Degree Days 2 (Base 50)    
Moisture  
Dew Point 42 °F    
Average Humidity 62    
Maximum Humidity 100    
Minimum Humidity 27    
Precipitation  
Precipitation 0.00 in - - ()
Sea Level Pressure  
Sea Level Pressure 29.94 in    
Wind  
Wind Speed 8 mph (SW)    
Max Wind Speed 20 mph    
Max Gust Speed 29 mph    
Visibility 9 miles    
Events Rain , Thunderstorm    
Averages and records for this station are not official NWS values.
T = Trace of Precipitation, MM = Missing Value Source: NWS Daily Summary

Daily Weather History Graph

Daily Weather History Graph

Search for Another Location

Airport or City:

Trip Planner

Search our weather history database for the weather conditions in past years. The results will help you decide how hot, cold, wet, or windy it might be!

Date:

Astronomy

Feb. 21, 2014 Rise Set
Actual Time 7:10 AM EST 6:22 PM EST
Civil Twilight 6:45 AM EST 6:47 PM EST
Nautical Twilight 6:16 AM EST 7:16 PM EST
Astronomical Twilight 5:47 AM EST 7:45 PM EST
Moon No Moon Rise 10:53 AM EST (2/21)
Length of Visible Light 12h 02m
Length of Day
11h 12m
Waning Gibbous, 61% of the Moon is Illuminated
Feb 21
Waning Gibbous
Feb 22
Last Quarter
Mar 1
New
Mar 8
First Quarter
Mar 16
Full

Hourly Weather History & Observations

Time (EST) Temp. Dew Point Humidity Pressure Visibility Wind Dir Wind Speed Gust Speed Precip Events Conditions
12:15 AM 64.4 °F 55.4 °F 73% 29.92 in 10.0 mi South 8.1 mph - N/A   Clear
12:35 AM 64.4 °F 55.4 °F 73% 29.91 in 10.0 mi South 11.5 mph 17.3 mph N/A   Clear
12:55 AM 64.4 °F 57.2 °F 77% 29.91 in 10.0 mi South 10.4 mph 20.7 mph N/A   Clear
1:15 AM 64.4 °F 57.2 °F 77% 29.91 in 10.0 mi South 10.4 mph 16.1 mph N/A   Clear
1:35 AM 64.4 °F 59.0 °F 83% 29.92 in 10.0 mi South 11.5 mph 18.4 mph N/A   Mostly Cloudy
1:55 AM 64.4 °F 59.0 °F 83% 29.90 in 10.0 mi South 10.4 mph - N/A   Overcast
2:20 AM 64.4 °F 59.0 °F 83% 29.89 in 10.0 mi SSE 11.5 mph - N/A   Scattered Clouds
2:35 AM 62.6 °F 59.0 °F 88% 29.87 in 10.0 mi SSE 11.5 mph 16.1 mph N/A   Clear
2:55 AM 62.6 °F 59.0 °F 88% 29.87 in 10.0 mi South 9.2 mph - N/A   Clear
3:15 AM 62.6 °F 59.0 °F 88% 29.87 in 10.0 mi South 8.1 mph - N/A   Clear
3:35 AM 62.6 °F 59.0 °F 88% 29.85 in 10.0 mi South 9.2 mph - N/A   Scattered Clouds
3:55 AM 62.6 °F 59.0 °F 88% 29.85 in 10.0 mi SSE 8.1 mph - N/A   Overcast
4:15 AM 62.6 °F 59.0 °F 88% 29.85 in 10.0 mi SSE 6.9 mph - N/A Thunderstorm Overcast
4:35 AM 62.6 °F 60.8 °F 94% 29.82 in 10.0 mi SSE 8.1 mph - N/A Thunderstorm Thunderstorm
4:55 AM 62.6 °F 60.8 °F 94% 29.82 in 10.0 mi South 11.5 mph 17.3 mph N/A   Overcast
5:15 AM 62.6 °F 60.8 °F 94% 29.82 in 10.0 mi South 11.5 mph 20.7 mph N/A   Overcast
5:35 AM 62.6 °F 60.8 °F 94% 29.82 in 10.0 mi SSE 12.7 mph 17.3 mph N/A Thunderstorm Thunderstorm
5:55 AM 62.6 °F 60.8 °F 94% 29.84 in 10.0 mi South 15.0 mph 21.9 mph N/A Thunderstorm Overcast
6:15 AM 62.6 °F 60.8 °F 94% 29.86 in 5.0 mi South 11.5 mph 18.4 mph N/A Rain , Thunderstorm Heavy Thunderstorms and Rain
6:35 AM 62.6 °F 60.8 °F 94% 29.87 in 4.0 mi South 11.5 mph 18.4 mph N/A Rain , Thunderstorm Rain
6:55 AM 62.6 °F 60.8 °F 94% 29.87 in 5.0 mi South 10.4 mph 16.1 mph N/A Rain , Thunderstorm Rain
7:15 AM 60.8 °F 60.8 °F 100% 29.90 in 2.5 mi SW 19.6 mph 28.8 mph N/A Rain Heavy Rain
7:35 AM 60.8 °F 59.0 °F 94% 29.89 in 5.0 mi SW 10.4 mph 20.7 mph N/A Rain Rain
7:55 AM 60.8 °F 59.0 °F 94% 29.89 in 4.0 mi SSW 9.2 mph 16.1 mph N/A Rain , Thunderstorm Heavy Thunderstorms and Rain
8:15 AM 59.0 °F 57.2 °F 94% 29.89 in 10.0 mi SSW 8.1 mph - N/A Rain , Thunderstorm Rain
8:35 AM 59.0 °F 57.2 °F 94% 29.88 in 7.0 mi South 4.6 mph - N/A Rain Rain
8:55 AM 55.4 °F 53.6 °F 94% 29.92 in 5.0 mi WNW 16.1 mph 26.5 mph N/A Rain Light Rain
9:15 AM 50.0 °F 44.6 °F 82% 29.94 in 10.0 mi WNW 9.2 mph - N/A   Overcast
9:35 AM 51.8 °F 44.6 °F 76% 29.94 in 10.0 mi West 8.1 mph - N/A   Overcast
9:55 AM 51.8 °F 44.6 °F 76% 29.94 in 10.0 mi West 4.6 mph - N/A   Overcast
10:15 AM 51.8 °F 44.6 °F 76% 29.94 in 10.0 mi West 8.1 mph - N/A   Overcast
10:40 AM 51.8 °F 44.6 °F 76% 29.95 in 10.0 mi West 8.1 mph - N/A   Overcast
10:55 AM 51.8 °F 44.6 °F 76% 29.95 in 10.0 mi West 8.1 mph - N/A   Overcast
11:15 AM 51.8 °F 44.6 °F 76% 29.96 in 10.0 mi West 6.9 mph - N/A   Overcast
11:35 AM 53.6 °F 44.6 °F 72% 29.96 in 10.0 mi West 5.8 mph - N/A   Overcast
11:55 AM 55.4 °F 44.6 °F 67% 29.96 in 10.0 mi West 6.9 mph - N/A   Mostly Cloudy
12:15 PM 57.2 °F 41.0 °F 55% 29.96 in 10.0 mi NW 8.1 mph - N/A   Clear
12:35 PM 59.0 °F 37.4 °F 45% 29.95 in 10.0 mi West 9.2 mph 19.6 mph N/A   Clear
12:55 PM 59.0 °F 37.4 °F 45% 29.95 in 10.0 mi West 11.5 mph 16.1 mph N/A   Clear
1:15 PM 59.0 °F 35.6 °F 42% 29.95 in 10.0 mi West 11.5 mph 18.4 mph N/A   Clear
1:35 PM 60.8 °F 32.0 °F 34% 29.95 in 10.0 mi West 10.4 mph 16.1 mph N/A   Clear
1:55 PM 60.8 °F 32.0 °F 34% 29.95 in 10.0 mi West 10.4 mph - N/A   Clear
2:15 PM 60.8 °F 28.4 °F 29% 29.95 in 10.0 mi West 6.9 mph - N/A   Clear
2:35 PM 60.8 °F 28.4 °F 29% 29.95 in 10.0 mi WSW 8.1 mph - N/A   Clear
2:55 PM 60.8 °F 26.6 °F 27% 29.95 in 10.0 mi SW 8.1 mph - N/A   Clear
3:15 PM 62.6 °F 28.4 °F 27% 29.95 in 10.0 mi West 4.6 mph - N/A   Clear
3:35 PM 62.6 °F 28.4 °F 27% 29.95 in 10.0 mi WSW 6.9 mph - N/A   Clear
3:55 PM 62.6 °F 28.4 °F 27% 29.95 in 10.0 mi West 8.1 mph - N/A   Clear
4:15 PM 62.6 °F 30.2 °F 30% 29.96 in 10.0 mi West 4.6 mph - N/A   Clear
4:35 PM 62.6 °F 30.2 °F 30% 29.97 in 10.0 mi WSW 5.8 mph - N/A   Clear
4:55 PM 62.6 °F 30.2 °F 30% 29.97 in 10.0 mi West 6.9 mph - N/A   Clear
5:15 PM 62.6 °F 30.2 °F 30% 29.97 in 10.0 mi West 5.8 mph - N/A   Clear
5:35 PM 60.8 °F 30.2 °F 31% 29.98 in 10.0 mi WSW 4.6 mph - N/A   Clear
5:55 PM 59.0 °F 30.2 °F 34% 29.98 in 10.0 mi Calm Calm - N/A   Clear
6:15 PM 59.0 °F 28.4 °F 31% 29.99 in 10.0 mi West 4.6 mph - N/A   Clear
6:35 PM 55.4 °F 28.4 °F 36% 29.99 in 10.0 mi West 3.5 mph - N/A   Clear
6:55 PM 55.4 °F 26.6 °F 33% 30.00 in 10.0 mi West 3.5 mph - N/A   Clear
7:15 PM 53.6 °F 26.6 °F 35% 30.00 in 10.0 mi Calm Calm - N/A   Clear
7:35 PM 51.8 °F 24.8 °F 35% 30.00 in 10.0 mi Calm Calm - N/A   Clear
7:55 PM 51.8 °F 24.8 °F 35% 30.01 in 10.0 mi WNW 3.5 mph - N/A   Clear
8:15 PM 51.8 °F 23.0 °F 33% 30.01 in 10.0 mi Calm Calm - N/A   Clear
8:35 PM 51.8 °F 23.0 °F 33% 30.01 in 10.0 mi Calm Calm - N/A   Clear
8:55 PM 50.0 °F 23.0 °F 35% 30.02 in 10.0 mi Calm Calm - N/A   Clear
9:15 PM 50.0 °F 23.0 °F 35% 30.02 in 10.0 mi Calm Calm - N/A   Clear
9:35 PM 48.2 °F 24.8 °F 40% 30.02 in 10.0 mi West 3.5 mph - N/A   Clear
9:55 PM 50.0 °F 23.0 °F 35% 30.02 in 10.0 mi West 3.5 mph - N/A   Clear
10:15 PM 48.2 °F 26.6 °F 43% 30.03 in 10.0 mi Calm Calm - N/A   Clear
10:35 PM 44.6 °F 28.4 °F 53% 30.03 in 10.0 mi Calm Calm - N/A   Clear
10:55 PM 44.6 °F 30.2 °F 57% 30.03 in 10.0 mi Calm Calm - N/A   Clear
11:15 PM 42.8 °F 30.2 °F 61% 30.04 in 10.0 mi Calm Calm - N/A   Clear
11:35 PM 39.2 °F 32.0 °F 75% 30.05 in 10.0 mi Calm Calm - N/A   Clear
11:55 PM 41.0 °F 30.2 °F 65% 30.05 in 10.0 mi Calm Calm - N/A   Clear